RYR46SZ LIMC-LEPA

Flight info

Callsign RYR46SZ
Flight time 1h 28m
Altitude 29000
Route NEDED DCT GEKBA DCT VAMTU DCT KOLON DCT GANGU DCT PADKO DCT VATIR N852 VERSO L129 LUNIK LUNI4M
Aircraft A320/M-SDE3FGHIRWY/LB1

Departure

Time 2026-05-07 14:23
Airport Milan Malpensa International Airport (LIMC)

Arrival

Time 2026-05-07 15:51
Airport Palma de Mallorca Airport (LEPA)
Time Latitude Longitude Altitude Speed Heading
2026-05-07 13:59 45.62864 8.71586 740 ft 0 kts 169°
2026-05-07 14:13 45.62873 8.71583 741 ft 1 kts 169°
2026-05-07 14:13 45.62885 8.71580 741 ft 2 kts 170°
2026-05-07 14:14 45.62901 8.71576 739 ft 2 kts 173°
2026-05-07 14:14 45.62918 8.71574 740 ft 2 kts 146°
2026-05-07 14:14 45.62927 8.71555 741 ft 2 kts 62°
2026-05-07 14:14 45.62927 8.71554 741 ft 0 kts 60°
2026-05-07 14:16 45.62942 8.71604 741 ft 12 kts 72°
2026-05-07 14:16 45.62959 8.71728 740 ft 14 kts 80°
2026-05-07 14:16 45.62977 8.71872 741 ft 16 kts 79°
2026-05-07 14:16 45.62976 8.72026 740 ft 17 kts 130°
2026-05-07 14:17 45.62865 8.72085 741 ft 18 kts 172°
2026-05-07 14:17 45.62736 8.72120 741 ft 20 kts 160°
2026-05-07 14:17 45.62599 8.72151 740 ft 21 kts 170°
2026-05-07 14:17 45.62451 8.72187 741 ft 22 kts 172°
2026-05-07 14:18 45.62299 8.72237 741 ft 22 kts 164°
2026-05-07 14:18 45.62237 8.72377 741 ft 19 kts 76°
2026-05-07 14:18 45.62247 8.72558 741 ft 19 kts 72°
2026-05-07 14:18 45.62281 8.72753 740 ft 21 kts 78°
2026-05-07 14:19 45.62304 8.72968 741 ft 22 kts 101°
2026-05-07 14:19 45.62173 8.73054 741 ft 23 kts 171°
2026-05-07 14:19 45.62014 8.73101 742 ft 24 kts 165°
2026-05-07 14:19 45.61845 8.73159 742 ft 26 kts 171°
2026-05-07 14:20 45.61715 8.73254 742 ft 22 kts 122°
2026-05-07 14:20 45.61623 8.73444 741 ft 24 kts 121°
2026-05-07 14:20 45.61595 8.73671 742 ft 24 kts 69°
2026-05-07 14:20 45.61686 8.73721 742 ft 0 kts 348°
2026-05-07 14:21 45.61690 8.73720 742 ft 4 kts 348°
2026-05-07 14:22 45.61949 8.73648 741 ft 73 kts 348°
2026-05-07 14:22 45.62644 8.73457 742 ft 128 kts 348°
2026-05-07 14:22 45.63667 8.73170 741 ft 170 kts 348°
2026-05-07 14:22 45.64813 8.72836 1345 ft 160 kts 348°
2026-05-07 14:23 45.65900 8.72584 1903 ft 162 kts 355°
2026-05-07 14:23 45.67051 8.72624 2400 ft 168 kts 18°
2026-05-07 14:23 45.68042 8.73579 2623 ft 188 kts 54°
2026-05-07 14:23 45.68575 8.75381 2891 ft 206 kts 73°
2026-05-07 14:24 45.69001 8.77387 3435 ft 213 kts 73°
2026-05-07 14:24 45.69528 8.79363 4155 ft 215 kts 59°
2026-05-07 14:24 45.70537 8.81015 4642 ft 231 kts 39°
2026-05-07 14:24 45.71794 8.82526 5260 ft 239 kts 46°
2026-05-07 14:25 45.72734 8.84489 5993 ft 242 kts 68°
2026-05-07 14:25 45.73099 8.86835 6748 ft 244 kts 90°
2026-05-07 14:25 45.72824 8.89233 7471 ft 248 kts 112°
2026-05-07 14:25 45.71928 8.91335 8175 ft 251 kts 134°
2026-05-07 14:26 45.70517 8.92814 8899 ft 253 kts 157°
2026-05-07 14:26 45.68811 8.93411 9614 ft 255 kts 180°
2026-05-07 14:26 45.67059 8.93026 10289 ft 256 kts 203°
2026-05-07 14:26 45.65548 8.91711 10975 ft 256 kts 226°
2026-05-07 14:27 45.64512 8.89671 11674 ft 255 kts 248°
2026-05-07 14:27 45.64103 8.87228 12381 ft 255 kts 269°
2026-05-07 14:27 45.64097 8.84690 13091 ft 256 kts 270°
2026-05-07 14:27 45.64095 8.82139 13793 ft 258 kts 270°
2026-05-07 14:28 45.64092 8.79567 14412 ft 260 kts 270°
2026-05-07 14:28 45.64087 8.76977 15028 ft 262 kts 270°
2026-05-07 14:28 45.64041 8.74370 15641 ft 264 kts 263°
2026-05-07 14:28 45.63597 8.71797 16052 ft 276 kts 249°
2026-05-07 14:29 45.62816 8.69180 16187 ft 297 kts 248°
2026-05-07 14:29 45.61963 8.66383 16320 ft 317 kts 248°
2026-05-07 14:29 45.61057 8.63413 16452 ft 336 kts 248°
2026-05-07 14:29 45.60104 8.60297 16792 ft 346 kts 247°
2026-05-07 14:30 45.59134 8.57127 17325 ft 351 kts 247°
2026-05-07 14:30 45.58155 8.53925 17918 ft 354 kts 247°
2026-05-07 14:30 45.57164 8.50695 18473 ft 357 kts 246°
2026-05-07 14:30 45.55873 8.47656 19007 ft 362 kts 233°
2026-05-07 14:31 45.54086 8.45097 19545 ft 367 kts 220°
2026-05-07 14:31 45.51889 8.43200 20104 ft 373 kts 206°
2026-05-07 14:31 45.49439 8.41923 20644 ft 377 kts 202°
2026-05-07 14:31 45.46946 8.40698 21170 ft 380 kts 202°
2026-05-07 14:32 45.44439 8.39466 21690 ft 382 kts 202°
2026-05-07 14:32 45.41954 8.38242 22210 ft 384 kts 202°
2026-05-07 14:32 45.39406 8.36986 22732 ft 387 kts 202°
2026-05-07 14:32 45.36869 8.35732 23247 ft 389 kts 202°
2026-05-07 14:33 45.34305 8.34464 23721 ft 392 kts 202°
2026-05-07 14:33 45.31727 8.33186 24139 ft 394 kts 203°
2026-05-07 14:33 45.29135 8.31901 24561 ft 395 kts 203°
2026-05-07 14:33 45.26534 8.30618 24965 ft 397 kts 203°
2026-05-07 14:34 45.23919 8.29333 25400 ft 398 kts 203°
2026-05-07 14:34 45.21300 8.28048 25813 ft 399 kts 203°
2026-05-07 14:34 45.18669 8.26761 26214 ft 401 kts 204°
2026-05-07 14:34 45.16024 8.25471 26603 ft 403 kts 204°
2026-05-07 14:35 45.13375 8.24178 26981 ft 404 kts 204°
2026-05-07 14:35 45.10676 8.22989 27361 ft 410 kts 198°
2026-05-07 14:35 45.07847 8.22300 27721 ft 414 kts 194°
2026-05-07 14:35 45.04993 8.21685 28120 ft 415 kts 194°
2026-05-07 14:36 45.02135 8.21071 28491 ft 417 kts 194°
2026-05-07 14:36 44.99260 8.20454 28851 ft 419 kts 194°
2026-05-07 14:36 44.96370 8.19835 28972 ft 423 kts 194°
2026-05-07 14:37 44.90424 8.18550 28979 ft 441 kts 194°
2026-05-07 14:37 44.84309 8.17234 28978 ft 454 kts 194°
2026-05-07 14:37 44.81129 8.16555 28978 ft 457 kts 194°
2026-05-07 14:38 44.74865 8.15222 28980 ft 459 kts 194°
2026-05-07 14:38 44.68707 8.13211 28973 ft 448 kts 208°
2026-05-07 14:39 44.63360 8.08885 28978 ft 443 kts 215°
2026-05-07 14:39 44.58101 8.04358 28977 ft 443 kts 215°
2026-05-07 14:40 44.52841 7.99845 28982 ft 443 kts 215°
2026-05-07 14:40 44.47574 7.95349 28990 ft 443 kts 215°
2026-05-07 14:41 44.43196 7.91617 28984 ft 443 kts 215°
2026-05-07 14:41 44.37926 7.87133 28977 ft 443 kts 215°
2026-05-07 14:42 44.32649 7.82658 28961 ft 443 kts 215°
2026-05-07 14:42 44.27396 7.78159 28971 ft 442 kts 218°
2026-05-07 14:43 44.22762 7.72629 28981 ft 438 kts 224°
2026-05-07 14:43 44.18192 7.66997 28991 ft 439 kts 224°
2026-05-07 14:44 44.13742 7.61228 28973 ft 435 kts 231°
2026-05-07 14:44 44.09770 7.54878 28987 ft 435 kts 231°
2026-05-07 14:45 44.05801 7.48524 28991 ft 435 kts 231°
2026-05-07 14:45 44.01833 7.42182 28993 ft 435 kts 231°
2026-05-07 14:46 43.97860 7.35852 28975 ft 435 kts 231°
2026-05-07 14:46 43.93883 7.29538 28997 ft 434 kts 231°
2026-05-07 14:47 43.89908 7.23242 28995 ft 433 kts 231°
2026-05-07 14:47 43.85937 7.16961 28999 ft 433 kts 230°
2026-05-07 14:48 43.81964 7.10692 29003 ft 432 kts 230°
2026-05-07 14:48 43.77997 7.04449 28988 ft 432 kts 230°
2026-05-07 14:49 43.74056 6.98268 28992 ft 431 kts 231°
2026-05-07 14:49 43.70975 6.91206 28989 ft 428 kts 248°
2026-05-07 14:50 43.68746 6.83586 28994 ft 428 kts 248°
2026-05-07 14:50 43.66513 6.76014 28988 ft 428 kts 248°
2026-05-07 14:51 43.64261 6.68396 28966 ft 429 kts 248°
2026-05-07 14:51 43.61998 6.60789 28959 ft 428 kts 248°
2026-05-07 14:52 43.59730 6.53190 28970 ft 428 kts 248°
2026-05-07 14:52 43.57471 6.45602 28962 ft 428 kts 248°
2026-05-07 14:53 43.55205 6.38021 28939 ft 428 kts 247°
2026-05-07 14:53 43.52929 6.30443 28936 ft 428 kts 247°
2026-05-07 14:54 43.50649 6.22870 28935 ft 428 kts 247°
2026-05-07 14:54 43.48358 6.15302 28938 ft 428 kts 247°
2026-05-07 14:55 43.46067 6.07738 28953 ft 427 kts 247°
2026-05-07 14:55 43.43780 6.00205 28969 ft 426 kts 247°
2026-05-07 14:56 43.41499 5.92696 28972 ft 425 kts 247°
2026-05-07 14:56 43.39209 5.85201 28963 ft 425 kts 247°
2026-05-07 14:57 43.36912 5.77725 28970 ft 424 kts 247°
2026-05-07 14:57 43.34630 5.70303 28982 ft 424 kts 247°
2026-05-07 14:58 43.32333 5.62831 28973 ft 425 kts 246°
2026-05-07 14:58 43.30017 5.55350 28962 ft 426 kts 246°
2026-05-07 14:59 43.27701 5.47886 28990 ft 423 kts 246°
2026-05-07 14:59 43.25398 5.40473 29003 ft 421 kts 246°
2026-05-07 15:00 43.22769 5.33337 29001 ft 421 kts 234°
2026-05-07 15:00 43.20737 5.30438 29011 ft 424 kts 223°
2026-05-07 15:00 43.18498 5.27810 28994 ft 424 kts 223°
2026-05-07 15:01 43.14007 5.22564 28975 ft 425 kts 223°
2026-05-07 15:01 43.09512 5.17313 28967 ft 424 kts 223°
2026-05-07 15:02 43.05032 5.12078 28985 ft 423 kts 223°
2026-05-07 15:02 43.00563 5.06861 28992 ft 422 kts 223°
2026-05-07 15:03 42.96096 5.01657 28988 ft 422 kts 223°
2026-05-07 15:03 42.91627 4.96466 28989 ft 422 kts 223°
2026-05-07 15:04 42.87163 4.91293 28986 ft 421 kts 223°
2026-05-07 15:04 42.82688 4.86132 28982 ft 421 kts 223°
2026-05-07 15:05 42.78214 4.80978 28985 ft 421 kts 223°
2026-05-07 15:05 42.73775 4.75858 28982 ft 421 kts 223°
2026-05-07 15:06 42.69306 4.70708 28989 ft 421 kts 223°
2026-05-07 15:06 42.64831 4.65566 28980 ft 421 kts 223°
2026-05-07 15:07 42.60347 4.60442 28989 ft 421 kts 223°
2026-05-07 15:07 42.55857 4.55325 28992 ft 422 kts 222°
2026-05-07 15:08 42.51365 4.50198 28964 ft 422 kts 222°
2026-05-07 15:08 42.46878 4.45072 28982 ft 422 kts 222°
2026-05-07 15:09 42.42389 4.39964 28994 ft 421 kts 222°
2026-05-07 15:09 42.37896 4.34871 28985 ft 421 kts 222°
2026-05-07 15:10 42.33401 4.29788 28987 ft 421 kts 222°
2026-05-07 15:10 42.28910 4.24714 28990 ft 420 kts 222°
2026-05-07 15:11 42.24430 4.19661 28990 ft 419 kts 222°
2026-05-07 15:11 42.19951 4.14621 29001 ft 419 kts 221°
2026-05-07 15:12 42.15200 4.10070 28997 ft 422 kts 212°
2026-05-07 15:12 42.10073 4.06309 28982 ft 422 kts 212°
2026-05-07 15:13 42.04920 4.02523 28991 ft 422 kts 211°
2026-05-07 15:13 41.99771 3.98749 28994 ft 421 kts 211°
2026-05-07 15:14 41.94622 3.94992 28990 ft 421 kts 211°
2026-05-07 15:14 41.89023 3.92556 28974 ft 430 kts 194°
2026-05-07 15:15 41.83133 3.91190 28977 ft 429 kts 194°
2026-05-07 15:15 41.77239 3.89857 28978 ft 429 kts 194°
2026-05-07 15:16 41.71347 3.88519 28981 ft 430 kts 194°
2026-05-07 15:16 41.65472 3.87160 28976 ft 430 kts 194°
2026-05-07 15:17 41.59578 3.85799 28984 ft 430 kts 194°
2026-05-07 15:17 41.53683 3.84446 28984 ft 430 kts 194°
2026-05-07 15:18 41.47795 3.83105 28977 ft 429 kts 194°
2026-05-07 15:18 41.41903 3.81759 28981 ft 429 kts 194°
2026-05-07 15:19 41.36023 3.80416 28995 ft 429 kts 193°
2026-05-07 15:19 41.30140 3.79078 28999 ft 428 kts 193°
2026-05-07 15:20 41.24274 3.77744 28988 ft 428 kts 193°
2026-05-07 15:20 41.18408 3.76406 28987 ft 427 kts 193°
2026-05-07 15:21 41.12754 3.74393 28985 ft 422 kts 204°
2026-05-07 15:21 41.07277 3.71565 28985 ft 422 kts 204°
2026-05-07 15:22 41.01805 3.68740 28964 ft 423 kts 203°
2026-05-07 15:22 40.96324 3.65917 28961 ft 423 kts 203°
2026-05-07 15:23 40.90840 3.63100 28964 ft 423 kts 203°
2026-05-07 15:23 40.85347 3.60294 28967 ft 423 kts 203°
2026-05-07 15:24 40.79852 3.57485 28955 ft 424 kts 203°
2026-05-07 15:24 40.74352 3.54674 28966 ft 421 kts 202°
2026-05-07 15:25 40.71687 3.53319 28958 ft 400 kts 202°
2026-05-07 15:25 40.69147 3.52035 28961 ft 381 kts 203°
2026-05-07 15:25 40.66729 3.50808 28959 ft 364 kts 203°
2026-05-07 15:25 40.64394 3.49616 28968 ft 358 kts 203°
2026-05-07 15:26 40.59775 3.47262 28955 ft 355 kts 203°
2026-05-07 15:26 40.55173 3.44924 28959 ft 355 kts 203°
2026-05-07 15:27 40.50574 3.42591 28943 ft 354 kts 203°
2026-05-07 15:27 40.48295 3.41441 28668 ft 347 kts 203°
2026-05-07 15:27 40.46065 3.40327 28405 ft 340 kts 201°
2026-05-07 15:28 40.43781 3.39583 28140 ft 338 kts 192°
2026-05-07 15:28 40.41425 3.39396 27855 ft 341 kts 182°
2026-05-07 15:28 40.39050 3.39533 27592 ft 342 kts 182°
2026-05-07 15:28 40.36677 3.39669 27332 ft 341 kts 182°
2026-05-07 15:29 40.35105 3.39758 27152 ft 341 kts 182°
2026-05-07 15:29 40.32739 3.39893 26896 ft 340 kts 181°
2026-05-07 15:29 40.29608 3.40070 26558 ft 340 kts 181°
2026-05-07 15:30 40.25006 3.40326 26068 ft 339 kts 181°
2026-05-07 15:30 40.22655 3.40457 25824 ft 338 kts 181°
2026-05-07 15:30 40.20321 3.40591 25493 ft 334 kts 181°
2026-05-07 15:30 40.18011 3.40726 25089 ft 332 kts 180°
2026-05-07 15:31 40.15703 3.40861 24671 ft 331 kts 180°
2026-05-07 15:31 40.13405 3.40993 24251 ft 331 kts 180°
2026-05-07 15:31 40.11109 3.41122 23828 ft 330 kts 180°
2026-05-07 15:31 40.08810 3.41250 23372 ft 330 kts 180°
2026-05-07 15:32 40.06517 3.41377 22909 ft 329 kts 180°
2026-05-07 15:32 40.04236 3.41505 22478 ft 327 kts 180°
2026-05-07 15:32 40.01967 3.41636 22054 ft 325 kts 179°
2026-05-07 15:32 39.99713 3.41763 21629 ft 324 kts 179°
2026-05-07 15:33 39.97467 3.41888 21184 ft 322 kts 179°
2026-05-07 15:33 39.95231 3.42010 20783 ft 321 kts 179°
2026-05-07 15:33 39.93005 3.42135 20361 ft 320 kts 179°
2026-05-07 15:33 39.90814 3.42263 19957 ft 319 kts 178°
2026-05-07 15:34 39.88599 3.42387 19541 ft 318 kts 178°
2026-05-07 15:34 39.86388 3.42507 19130 ft 318 kts 178°
2026-05-07 15:34 39.84178 3.42629 18718 ft 318 kts 178°
2026-05-07 15:34 39.81969 3.42752 18310 ft 318 kts 178°
2026-05-07 15:35 39.79761 3.42875 17861 ft 317 kts 178°
2026-05-07 15:35 39.77564 3.42997 17451 ft 315 kts 178°
2026-05-07 15:35 39.75377 3.43122 17048 ft 313 kts 178°
2026-05-07 15:35 39.73206 3.43158 16650 ft 312 kts 186°
2026-05-07 15:36 39.71117 3.42453 16256 ft 311 kts 203°
2026-05-07 15:36 39.69308 3.40916 15859 ft 313 kts 221°
2026-05-07 15:36 39.67958 3.38707 15454 ft 316 kts 239°
2026-05-07 15:36 39.66968 3.36160 15054 ft 316 kts 241°
2026-05-07 15:37 39.65986 3.33601 14652 ft 317 kts 241°
2026-05-07 15:37 39.64997 3.31036 14251 ft 319 kts 241°
2026-05-07 15:37 39.64001 3.28457 13845 ft 320 kts 241°
2026-05-07 15:37 39.62999 3.25872 13409 ft 321 kts 241°
2026-05-07 15:38 39.62338 3.24166 13218 ft 318 kts 241°
2026-05-07 15:38 39.61035 3.20798 12945 ft 309 kts 240°
2026-05-07 15:38 39.60397 3.19148 12740 ft 309 kts 240°
2026-05-07 15:38 39.59433 3.16664 12469 ft 308 kts 241°
2026-05-07 15:39 39.58478 3.14199 12072 ft 304 kts 241°
2026-05-07 15:39 39.57529 3.11755 11418 ft 303 kts 240°
2026-05-07 15:39 39.56593 3.09347 10952 ft 294 kts 240°
2026-05-07 15:39 39.55682 3.06998 10605 ft 291 kts 240°
2026-05-07 15:40 39.54771 3.04654 10253 ft 291 kts 241°
2026-05-07 15:40 39.53860 3.02304 9898 ft 292 kts 242°
2026-05-07 15:40 39.52947 2.99954 9523 ft 292 kts 241°
2026-05-07 15:40 39.52036 2.97611 9162 ft 291 kts 241°
2026-05-07 15:41 39.51123 2.95266 8808 ft 291 kts 240°
2026-05-07 15:41 39.50212 2.92931 8455 ft 290 kts 241°
2026-05-07 15:41 39.49304 2.90606 8103 ft 289 kts 241°
2026-05-07 15:41 39.48407 2.88318 7757 ft 289 kts 242°
2026-05-07 15:42 39.47501 2.86005 7404 ft 288 kts 241°
2026-05-07 15:42 39.46584 2.83666 7067 ft 287 kts 241°
2026-05-07 15:42 39.45687 2.81378 6650 ft 291 kts 241°
2026-05-07 15:42 39.44785 2.79075 6306 ft 285 kts 242°
2026-05-07 15:43 39.43905 2.76774 5917 ft 284 kts 246°
2026-05-07 15:43 39.43375 2.74321 5535 ft 283 kts 262°
2026-05-07 15:43 39.43148 2.71781 5157 ft 284 kts 263°
2026-05-07 15:43 39.42924 2.69252 4783 ft 283 kts 263°
2026-05-07 15:44 39.42695 2.66728 4395 ft 283 kts 263°
2026-05-07 15:44 39.42467 2.64233 4016 ft 275 kts 263°
2026-05-07 15:44 39.42247 2.61822 3639 ft 265 kts 263°
2026-05-07 15:44 39.42035 2.59498 3271 ft 257 kts 263°
2026-05-07 15:45 39.41828 2.57219 3054 ft 251 kts 263°
2026-05-07 15:45 39.41670 2.55022 2985 ft 238 kts 273°
2026-05-07 15:45 39.42155 2.53108 2985 ft 218 kts 310°
2026-05-07 15:45 39.43308 2.51972 3002 ft 205 kts 345°
2026-05-07 15:46 39.45776 2.52531 3012 ft 167 kts 45°
2026-05-07 15:46 39.46438 2.53646 2981 ft 149 kts 60°
2026-05-07 15:46 39.46964 2.54752 2875 ft 142 kts 60°
2026-05-07 15:47 39.47474 2.55824 2723 ft 139 kts 60°
2026-05-07 15:47 39.47977 2.56879 2546 ft 138 kts 60°
2026-05-07 15:47 39.48476 2.57930 2380 ft 136 kts 60°
2026-05-07 15:47 39.48970 2.58969 2194 ft 135 kts 60°
2026-05-07 15:48 39.49462 2.60003 2015 ft 134 kts 60°
2026-05-07 15:48 39.49952 2.61034 1846 ft 134 kts 59°
2026-05-07 15:48 39.50441 2.62064 1670 ft 134 kts 60°
2026-05-07 15:48 39.50930 2.63093 1489 ft 134 kts 59°
2026-05-07 15:49 39.51409 2.64100 1318 ft 133 kts 59°
2026-05-07 15:49 39.51890 2.65114 1132 ft 132 kts 58°
2026-05-07 15:49 39.52370 2.66125 956 ft 131 kts 59°
2026-05-07 15:49 39.52850 2.67138 758 ft 133 kts 59°
2026-05-07 15:50 39.53355 2.68140 578 ft 133 kts 59°
2026-05-07 15:50 39.53830 2.69165 407 ft 133 kts 64°
2026-05-07 15:50 39.54300 2.70198 209 ft 135 kts 60°
2026-05-07 15:50 39.54796 2.71224 61 ft 134 kts 61°
2026-05-07 15:51 39.55234 2.72156 37 ft 98 kts 59°
2026-05-07 15:51 39.55453 2.72626 38 ft 44 kts 60°
2026-05-07 15:51 39.55497 2.72903 38 ft 25 kts 88°
2026-05-07 15:51 39.55502 2.73010 38 ft 2 kts 85°
2026-05-07 15:52 39.55503 2.73024 38 ft 1 kts 85°
2026-05-07 15:52 39.55504 2.73034 38 ft 2 kts 85°
2026-05-07 15:52 39.55506 2.73067 38 ft 5 kts 84°
2026-05-07 15:52 39.55500 2.73123 38 ft 8 kts 96°
2026-05-07 15:53 39.55511 2.73202 38 ft 10 kts 65°
2026-05-07 15:53 39.55554 2.73296 38 ft 14 kts 60°
2026-05-07 15:53 39.55610 2.73412 38 ft 17 kts 58°
2026-05-07 15:53 39.55569 2.73540 38 ft 18 kts 147°
2026-05-07 15:54 39.55471 2.73510 38 ft 16 kts 236°
2026-05-07 15:54 39.55376 2.73477 38 ft 17 kts 147°
2026-05-07 15:54 39.55269 2.73566 38 ft 18 kts 147°
2026-05-07 15:54 39.55170 2.73632 38 ft 13 kts 171°
2026-05-07 15:55 39.55103 2.73622 38 ft 6 kts 191°
2026-05-07 15:55 39.55086 2.73617 38 ft 0 kts 192°